Location: Newark
(49.8348°N, 24.0280°E)
Time: 20:42:13
(UTC+00:00)

S-56A Canister/Altair - Pass Details

Date: 28 January 2020
Orbit: 633 x 2499 km, 38.9° (Epoch: 19 February)

Event Time Altitude Azimuth Distance (km) Brightness Sun altitude
Rises 19:05:49 0° 245° (WSW) 4,084 11.8 -37.5°
Reaches altitude 10° 19:09:26 10° 234° (SW) 2,815 10.7 -38.1°
Enters shadow 19:11:09 16° 224° (SW) 2,265 10.1 -38.4°
Maximum altitude 19:14:40 26° 180° (S) 1,555 - -38.9°
Drops below altitude 10° 19:18:47 10° 123° (ESE) 2,176 - -39.5°
Sets 19:21:12 0° 110° (ESE) 2,991 - -39.9°
